Live-Position
3D-Globus wird geladen...
Über Starlink 11241
Group: 3 satellites
Beschreibung wird geladen...
Nächste Überflüge
Passes for default location (London). Set your location on the main map for personalized predictions.
Höhenverlauf
Loading altitude history...
No altitude history available
Zweizeiliger Elementsatz
1 60936U 24155N 26128.18621010 .00002331 00000-0 24102-4 0 9991
2 60936 53.1592 48.1953 0000830 133.7668 226.3418 15.69699666 97742
Epoch: 8. Mai 2026 •
Age: 5 hours
Aktueller Status
Höhe 361.4 km
Geschwindigkeit 7.69 km/s
Subsatellitenpunkt -2.32°S,
43.7°E
Startdatum 31. Aug. 2024
Alter 1.6 years
Typ internet
Startgruppe
Falcon 9 •
Group 9-5 •
21 satellites
Starlink 11239
60924
Starlink 11245 60925
Starlink 11244 60926
Starlink 11243 60927
Starlink 11238 60928
Starlink 11240 60929
Starlink 11251 60930
Starlink 11204 60931
Starlink 11246 60932
Starlink 11207 60933
Starlink 11237 60934
Starlink 11253 60935
Starlink 32259 60937
Starlink 32262 60938
Starlink 32258 60939
Starlink 32251 60940
Starlink 32224 60941
Starlink 32184 60942
Starlink 32288 60943
Starlink 32276 60944
Technische Details
Klassifizierung Payload
Masse 960.00 kg
Trockenmasse 910.00 kg
Gesamtmasse 960.00 kg
Länge 0.30 m
Durchmesser 4.10 m
Spannweite 29.00 m
Form Box + pan
Hersteller SPXS
Bus-Typ Starlink V2MD
Phasenstatus In Orbit
Besitzer/Staat SPXS/US
Most Searched
Loading...